Location: Ferchesar
(52.6477°N, 12.4298°E)
Time: 23:58:38
(UTC+01:00)

deb Explorer IX - Pass Details

Date: 08 December 2021
Orbit: 544 x 1082 km, 38.8° (Epoch: 19 January)

Event Time Altitude Azimuth Distance (km) Brightness Sun altitude
Rises 09:26:36 0° 224° (SW) 3,225 ? 7.4°
Reaches altitude 10° 09:30:27 10° 198° (SSW) 2,167 ? 7.7°
Maximum altitude 09:32:45 13° 170° (S) 1,885 ? 7.9°
Drops below altitude 10° 09:34:50 10° 143° (SE) 2,012 ? 8.1°
Sets 09:38:17 0° 115° (ESE) 2,839 ? 8.4°
